Yuma MCAS, AZ

1:24 PM MST on May 24, 2017 (GMT -0700)
Yuma Marine Corps Air Station

Weather History for KNYL - January, 2014

Change the Weather History Date:

Sunday, January 19, 2014

  Actual Average Record
Temperature  
Mean Temperature 64 °F 59 °F  
Max Temperature 74 °F 70 °F 88 °F (1971)
Min Temperature 53 °F 48 °F 31 °F (1949)
Degree Days  
Heating Degree Days 1 6  
Month to date heating degree days 58 134  
Since 1 July heating degree days 299 438  
Cooling Degree Days 0 0  
Month to date cooling degree days 1 0  
Year to date cooling degree days 1 0  
Growing Degree Days 14 (Base 50)    
Moisture  
Dew Point 19 °F    
Average Humidity 21    
Maximum Humidity 30    
Minimum Humidity 11    
Precipitation  
Precipitation 0.00 in 0.01 in 0.38 in (2010)
Month to date precipitation 0.00 0.25  
Year to date precipitation 0.00 0.25  
Sea Level Pressure  
Sea Level Pressure 30.08 in    
Wind  
Wind Speed 8 mph (NNE)    
Max Wind Speed 16 mph    
Max Gust Speed 17 mph    
Visibility 10 miles    
Events      
T = Trace of Precipitation, MM = Missing Value Source: NWS Daily Summary

Daily Weather History Graph

Daily Weather History Graph

Search for Another Location

Airport or City:

Trip Planner

Search our weather history database for the weather conditions in past years. The results will help you decide how hot, cold, wet, or windy it might be!

Date:

Astronomy

Jan. 19, 2014 Rise Set
Actual Time 7:39 AM MST 5:59 PM MST
Civil Twilight 7:13 AM MST 6:25 PM MST
Nautical Twilight 6:43 AM MST 6:55 PM MST
Astronomical Twilight 6:13 AM MST 7:25 PM MST
Moon 9:26 PM MST (1/19) 9:24 AM MST (1/19)
Length of Visible Light 11h 12m
Length of Day
10h 19m
Waning Gibbous, 89% of the Moon is Illuminated
Jan 19
Waning Gibbous
Jan 23
Last Quarter
Jan 30
New
Feb 6
First Quarter
Feb 14
Full

Hourly Weather History & Observations

Time (MST) Temp. Dew Point Humidity Pressure Visibility Wind Dir Wind Speed Gust Speed Precip Events Conditions
12:57 AM 55.0 °F 18.0 °F 23% 30.06 in 10.0 mi Calm Calm - N/A   Clear
1:57 AM 55.0 °F 21.0 °F 27% 30.06 in 10.0 mi NE 3.5 mph - N/A   Clear
2:57 AM 55.0 °F 19.9 °F 25% 30.07 in 10.0 mi North 5.8 mph - N/A   Clear
3:57 AM 57.0 °F 17.1 °F 21% 30.07 in 10.0 mi NNE 6.9 mph - N/A   Clear
4:57 AM 55.0 °F 19.9 °F 25% 30.06 in 10.0 mi NNE 9.2 mph - N/A   Clear
5:57 AM 55.0 °F 19.9 °F 25% 30.06 in 10.0 mi NNE 11.5 mph - N/A   Clear
6:57 AM 54.0 °F 19.0 °F 25% 30.08 in 10.0 mi NNE 9.2 mph - N/A   Clear
7:57 AM 54.0 °F 19.0 °F 25% 30.09 in 10.0 mi NNE 10.4 mph - N/A   Clear
8:57 AM 57.0 °F 18.0 °F 22% 30.12 in 10.0 mi NNE 11.5 mph - N/A   Clear
9:57 AM 61.0 °F 19.0 °F 20% 30.14 in 10.0 mi NNE 9.2 mph - N/A   Clear
10:57 AM 62.1 °F 18.0 °F 18% 30.15 in 10.0 mi NNE 12.7 mph - N/A   Clear
11:57 AM 64.9 °F 17.1 °F 16% 30.13 in 10.0 mi NE 13.8 mph - N/A   Clear
12:57 PM 70.0 °F 16.0 °F 13% 30.10 in 10.0 mi NNE 11.5 mph - N/A   Clear
1:57 PM 71.1 °F 16.0 °F 12% 30.08 in 10.0 mi NNE 11.5 mph - N/A   Clear
2:57 PM 73.9 °F 15.1 °F 11% 30.06 in 10.0 mi NNE 10.4 mph - N/A   Clear
4:57 PM 72.0 °F 18.0 °F 13% 30.05 in 10.0 mi NE 8.1 mph - N/A   Clear
6:57 PM 66.9 °F 21.0 °F 17% 30.06 in 10.0 mi NNE 3.5 mph - N/A   Clear
7:57 PM 63.0 °F 19.9 °F 19% 30.07 in 10.0 mi Calm Calm - N/A   Clear
8:57 PM 57.9 °F 27.0 °F 31% 30.08 in 10.0 mi North 4.6 mph - N/A   Clear
9:57 PM 59.0 °F 21.0 °F 23% 30.08 in 10.0 mi NNE 5.8 mph - N/A   Clear
10:57 PM 59.0 °F 19.9 °F 22% 30.09 in 10.0 mi North 4.6 mph - N/A   Clear
11:57 PM 57.0 °F 19.9 °F 24% 30.09 in 10.0 mi NNE 4.6 mph - N/A   Clear